Weather in Kuujjuarapik

Canada     55°16′39″N   77°45′44″W
temp.,
°C
wind,
m/s
gust,
m/s
humid.,
%
clouds,
%
prec.,
mm/h
press.,
hPa
HPBL,
m
31 july, sat
sat3123:00+7w4597100 0.0 1010147
02:00+6wnw3597100 0.0 1010121
05:00+6wnw3496100 0.0 1009141
08:00+7wnw5590100 0.0 1009249
11:00+9wnw5584100 0.0 1009266
14:00+9wnw4484100 0.0 1009237
17:00+9nnw4483100 0.0 1010234
20:00+8n3690100 0.0 1010228
1 august, sun
sun123:00+8nnw4798100 0.2 1010256
02:00+7nw51097100 0.3 1010332
05:00+7nnw5897100 0.1 1011229
08:00+8nw4592100 0.1 1012184
11:00+8nw569097 0.1 1013261
14:00+10wnw677916 0.1 1013403
17:00+9wnw677787 0.0 1013362
20:00+7w568340 0.0 1013222
2 august, mon
mon223:00+7w468997 0.0 1013182
02:00+7sw468691 0.0 1011178
05:00+7ssw51081100 0.0 1009224
08:00+9ssw111671100 0.1 1006419
11:00+9ssw122093100 4.8 1003550
14:00+10sw101496100 4.9 1001519
17:00+8wsw7998100 0.4 1001351
20:00+6w81096100 0.7 1002605
3 august, tue
tue323:00+6wsw6896100 0.1 1002451
02:00+6wsw4695100 0.3 1002352
05:00+6wsw3596100 0.0 1003315
08:00+7w3497100 0.1 1004329
11:00+8nw449487 0.0 1006318
14:00+9nw568492 0.1 1009510
17:00+8wnw6792100 0.0 1011355
20:00+7w689297 0.0 1013282
4 august, wed
wed423:00+6wsw5796100 0.0 1014181
02:00+7sw5891100 0.0 1014212
05:00+7ssw6981100 0.0 1014236
08:00+10s8147887 0.0 1014347
11:00+16ssw101259100 0.0 1013516
14:00+20sw1012526 0.0 1012678
17:00+21sw1013493 0.0 1012694
20:00+19ssw1017590 0.0 1012346